Location: Newark
(37.9800°N, 91.3000°W)
Time: 19:07:18
(UTC+00:00)

NOAA 19 - Pass Details

Date: 13 December 2019
Orbit: 840 x 862 km, 99.2° (Epoch: 28 January)

Event Time Altitude Azimuth Distance (km) Brightness Sun altitude
Rises 10:54:16 0° 26° (NNE) 3,436 8.6 -26.4°
Reaches altitude 10° 10:57:02 10° 39° (NE) 2,492 8.0 -25.9°
Maximum altitude 11:01:40 27° 96° (E) 1,573 7.3 -25.0°
Drops below altitude 10° 11:06:16 10° 153° (SSE) 2,466 8.1 -24.1°
Sets 11:08:57 0° 165° (SSE) 3,393 8.7 -23.6°
